Location: Cathedral Gorge
(37.8167°N, 114.4167°W)
Time: 18:49:16
(UTC-08:00)

Tiangong 1 - Visible Passes

Search period start: 19 January 2018 00:00
Search period end: 29 January 2018 00:00
Orbit: 263 x 287 km, 42.8° (Epoch: 19 January)

Date Brightness Start Highest point End Pass type
(mag) Time Alt. Az. Time Alt. Az. Time Alt. Az.
19 Jan 1.8 18:00:00 10° NW 18:02:10 26° N 18:02:11 26° N visible
20 Jan 1.3 17:59:36 10° NW 18:01:54 33° NNE 18:01:59 33° NNE visible
21 Jan 0.7 17:59:03 10° WNW 18:01:28 48° NNE 18:01:46 44° NE visible
22 Jan 0.3 17:58:23 10° WNW 18:00:51 83° NNE 18:01:34 41° ESE visible
23 Jan 1.1 17:57:40 10° WNW 18:00:05 51° SSW 18:01:26 21° SE visible
24 Jan 2.5 17:56:58 10° W 17:59:07 26° SSW 18:01:15 10° SSE visible
25 Jan 3.5 17:56:30 10° WSW 17:58:00 15° SW 17:59:27 10° S visible
